Liberia, Costa Rica

8:10 AM CST on May 30, 2017 (GMT -0600)
Daniel Oduber Quiros International

Weather History for MRLB - May, 2013

Change the Weather History Date:

Saturday, May 25, 2013

  Actual Average Record
Temperature  
Mean Temperature 82 °F -  
Max Temperature 92 °F 87 °F 97 °F (2015)
Min Temperature 73 °F 75 °F 69 °F (2012)
Cooling Degree Days 18    
Growing Degree Days 32 (Base 50)    
Moisture  
Dew Point 72 °F    
Average Humidity 72    
Maximum Humidity 94    
Minimum Humidity 45    
Precipitation  
Precipitation 0.00 in - - ()
Sea Level Pressure  
Sea Level Pressure 29.87 in    
Wind  
Wind Speed 4 mph ()    
Max Wind Speed 9 mph    
Max Gust Speed -    
Visibility 7.7 miles    
Events      
Averages and records for this station are not official NWS values.
T = Trace of Precipitation, MM = Missing Value Source: Averaged Metar Reports

Daily Weather History Graph

Daily Weather History Graph

Search for Another Location

Airport or City:

Trip Planner

Search our weather history database for the weather conditions in past years. The results will help you decide how hot, cold, wet, or windy it might be!

Date:

Astronomy

May. 25, 2013 Rise Set
Actual Time 5:19 AM CST 5:59 PM CST
Civil Twilight 4:56 AM CST 6:22 PM CST
Nautical Twilight 4:29 AM CST 6:48 PM CST
Astronomical Twilight 4:02 AM CST 7:15 PM CST
Moon 6:48 PM CST (5/25) 5:42 AM CST (5/25)
Length of Visible Light 13h 25m
Length of Day
12h 40m
Waxing Gibbous, 99% of the Moon is Illuminated
May 25
Waxing Gibbous
May 31
Last Quarter
Jun 8
New
Jun 16
First Quarter
Jun 23
Full

Hourly Weather History & Observations

Time (CST) Temp. Heat Index Dew Point Humidity Pressure Visibility Wind Dir Wind Speed Gust Speed Precip Events Conditions
6:00 AM 74 °F - 72 °F 93% 29.87 in 12 mi Calm Calm - -   Overcast
6:00 AM 73.4 °F - 71.6 °F 94% 29.86 in 6.2 mi Calm Calm - N/A   Mostly Cloudy
7:00 AM 75.2 °F - 73.4 °F 94% 29.87 in - South 4.6 mph - N/A   Clear
8:00 AM 77.0 °F - 73.4 °F 89% 29.89 in 6.2 mi SSW 5.8 mph - N/A   Mostly Cloudy
9:00 AM 78 °F - 74 °F 83% 29.93 in 12 mi SSW 6.9 mph - -   Overcast
9:00 AM 78.8 °F - 73.4 °F 83% 29.92 in 6.2 mi SSW 6.9 mph - N/A   Mostly Cloudy
10:00 AM 78.8 °F - 75.2 °F 89% 29.94 in 6.2 mi North 3.5 mph - N/A   Mostly Cloudy
11:00 AM 82.4 °F 88.2 °F 73.4 °F 74% 29.91 in 6.2 mi East 6.9 mph - N/A   Mostly Cloudy
12:00 PM 85 °F - 72 °F 58% 29.91 in 12 mi SE 9.2 mph - -   Overcast
12:00 PM 84.2 °F 90.9 °F 73.4 °F 70% 29.89 in 6.2 mi SE 9.2 mph - N/A   Mostly Cloudy
1:00 PM 86.0 °F 91.8 °F 71.6 °F 62% 29.86 in 6.2 mi South 4.6 mph - N/A   Mostly Cloudy
2:00 PM 86.0 °F 93.4 °F 73.4 °F 66% 29.84 in 6.2 mi WSW 4.6 mph - N/A   Mostly Cloudy
3:00 PM 88 °F - 70 °F 45% 29.84 in 12 mi East 8.1 mph - -   Overcast
3:00 PM 87.8 °F 92.6 °F 69.8 °F 55% 29.83 in 6.2 mi East 8.1 mph - N/A   Mostly Cloudy
4:00 PM 87.8 °F 92.6 °F 69.8 °F 55% 29.82 in 6.2 mi East 9.2 mph - N/A   Mostly Cloudy
5:00 PM 86.0 °F 90.4 °F 69.8 °F 58% 29.82 in 6.2 mi NE 4.6 mph - N/A   Mostly Cloudy
6:00 PM 77 °F - 72 °F 81% 29.86 in 11 mi SSW 3.5 mph - -   Overcast
6:00 PM 84.2 °F 87.3 °F 68.0 °F 58% 29.84 in 6.2 mi ENE 5.8 mph - N/A   Mostly Cloudy
7:00 PM 82.4 °F 85.4 °F 68.0 °F 62% 29.87 in 6.2 mi SE 4.6 mph - N/A   Mostly Cloudy
8:00 PM 80.6 °F 83.9 °F 69.8 °F 70% 29.88 in 6.2 mi ENE 6.9 mph - N/A   Mostly Cloudy